weather.gov     
National Weather Service

Terminal Aerodrome Forecast
NWS Homepage
This page is being discontinued on March 12, 2014.
The same data is available at this site. Please update your bookmarks.
Thank you, and we apologize for the inconvenience.
Please send an email to SR-SRH.Webmaster@noaa.gov with any concerns.


Current Version
Previous Version:    01  02  03  04  05  06  07  08  09  10  11  12  13  14  15  16  17  18  19  20  21  22  23  24  25  26  27  28  29  30  
   31  
[Printable]
318
FTUS42 KGSP 211502 AAB
TAFHKY
TAF AMD
KHKY 211502Z 2115/2212 00000KT 4SM BR BKN009 OVC016
     FM211600 05003KT P6SM OVC025
     FM220200 07005KT P6SM BKN019
     FM220600 05006KT P6SM -RA OVC021
     FM220800 05006KT P6SM -RA OVC016=


318
FTUS42 KGSP 211502 AAB
TAFHKY
TAF AMD
KHKY 211502Z 2115/2212 00000KT 4SM BR BKN009 OVC016
     FM211600 05003KT P6SM OVC025
     FM220200 07005KT P6SM BKN019
     FM220600 05006KT P6SM -RA OVC021
     FM220800 05006KT P6SM -RA OVC016=




U.S. Dept. of Commerce
NOAA National Weather Service
1325 East West Highway
Silver Spring, MD 20910
E-mail: w-nws.webmaster@noaa.gov
Page last modified: May 16, 2007
NATIONAL WEATHER SERVICE: for Safety, for Work, for Fun - FOR LIFE